sat.trackr.live / text

‹ back to catalog

STARLINK-33746

NORAD 63446 · 2025-069P

PAYLOAD ACTIVE UNKNOWN

§ Identity

Operator
Country
US
Launch date
2025-04-04
Launch site
AFWTR
Launch vehicle
Mass (kg)
RCS (m²)

Purposes: comms

External: N2YO · Heavens-Above · Gunter

§ Orbital elements

Epoch: 2026-09-20T10:47:24.820512Z

Period
93.85 min
Inclination
53.1602°
Eccentricity
0.0001163
Mean motion
15.34403101 rev/d
Perigee alt
461.9 km
Apogee alt
463.5 km
Semi-major
6,840.8 km
B*
6.8167e-4
RAAN
309.9954°
Arg perigee
83.8567°
Mean anomaly
276.2568°
Rev number
8,328

§ Raw data

STARLINK-337461 63446U 25069P   26263.44959283  .00022727  00000+0  68167-3 0  99982 63446  53.1602 309.9954 0001163  83.8567 276.2568 15.34403101 83288

JSON: /api/v1/satellites/63446 · /tle

For live sub-satellite position, see the globe view (requires WebGL).

§ Visibility from observer

Set your observer location to see the next 7 days of passes ≥ 10°. The values pass through the URL so the page stays shareable.

No JS? Fill the form by hand. The geolocation button needs JavaScript.